Volver al catálogo

CZ-6A DEB

ActivoSSO
NORAD 54305·DEBRIS·🇨🇳 China

Lanzado Nov 11, 2022 desde Taiyuan Satellite Launch Center

Loading…

Próximos Pases (próximas 24 horas)

TLE

ActualizadoSource: Space-Track

Época: Sep 14, 2026, 19:36 UTC

1 54305U 22151AY  26257.81706521  .00000212  00000-0  10837-3 0  9997
2 54305  98.7486 283.9924 0054910  90.1425 270.6046 14.24680177199068

Sigue CZ-6A DEB en tiempo real con AllMySat

Download on the App Store